Wind_Speed
13 13 13 12 11 10 10 8 9 9 8 7 7 7 7 7 7 7 7 7 7 7 7 8 8 8 8 8 8 9 9 9 10 10 10 11 12 13 13 13 13 14 14
13 13 13 12 11 11 10 10 9 9 9 8 8 8 8 8 8 8 7 7 7 8 8 9 9 9 9 10 10 10 10 11 11 12 12 13 13 13 14 14 15 15 15
13 13 13 12 11 11 11 11 11 10 11 10 10 10 10 9 9 9 9 8 9 9 10 10 10 11 11 12 12 12 12 12 12 13 14 14 14 15 15 15 15 15 16
14 14 14 13 12 12 12 12 12 12 11 11 10 11 11 11 11 10 10 10 10 11 11 12 12 12 12 12 13 13 13 13 14 14 15 15 16 16 16 15 15 16 17
15 15 15 15 14 14 13 12 12 12 12 12 11 11 12 13 12 12 12 12 12 13 13 13 13 13 13 13 13 14 15 15 15 16 16 16 17 16 16 17 17 18 19
16 16 16 16 15 15 14 13 13 12 12 12 12 13 14 14 14 14 14 15 15 15 15 15 15 15 15 15 15 16 16 17 17 17 18 18 18 19 19 20 20 21 22
16 16 16 16 16 15 16 15 14 13 13 14 13 14 15 15 15 15 16 16 16 17 17 16 17 17 18 18 18 18 18 18 19 20 20 21 21 22 22 24 25 25 26
17 17 17 17 16 16 16 15 14 14 14 15 15 15 15 16 16 17 17 17 18 18 18 18 18 19 19 19 20 20 21 21 21 22 22 23 24 25 26 27 28 29 30
16 17 17 17 16 16 16 16 16 16 16 16 16 16 16 17 17 18 18 18 19 19 20 20 20 20 20 21 21 22 22 23 23 24 25 26 26 27 28 29 30 31 32
16 16 17 18 18 18 18 17 17 17 17 16 17 17 17 17 18 19 19 20 20 21 21 22 22 22 22 22 22 23 24 25 25 26 27 28 29 30 31 32 33 33 34
17 17 18 19 19 19 18 18 17 17 18 17 18 17 18 18 19 20 20 20 21 22 22 23 22 23 23 24 24 25 26 27 27 28 29 30 30 31 32 33 35 35 36
17 18 18 19 19 19 19 18 18 18 18 18 18 18 18 19 20 20 20 21 22 23 23 23 23 24 25 25 26 27 28 29 30 30 31 31 32 33 34 35 35 36 36
18 18 18 19 19 19 19 18 18 19 19 19 19 19 19 20 20 20 21 22 23 23 23 23 24 25 25 26 28 29 30 30 31 32 32 32 34 35 35 35 36 36 37
19 19 20 20 19 19 19 20 19 19 19 19 20 20 20 20 21 21 22 23 24 25 25 25 26 27 28 29 30 31 32 32 32 33 33 34 35 35 36 36 37 37 37
20 20 21 21 21 21 20 20 21 21 20 20 21 21 22 23 23 24 24 24 26 26 27 28 28 29 30 31 32 33 33 33 33 34 34 35 36 37 37 37 37 37 38
19 20 21 22 22 23 22 22 22 22 22 23 22 22 23 24 25 25 26 26 27 27 28 28 29 30 31 32 32 32 32 33 34 35 35 36 37 38 38 38 39 39 40
20 21 21 22 22 23 23 23 23 23 23 23 23 23 24 25 26 27 27 27 28 28 28 29 30 31 31 32 32 33 33 34 35 35 36 38 38 38 39 39 40 40 40
20 20 20 20 21 22 23 23 23 23 24 24 24 24 25 26 27 28 28 29 29 29 29 30 31 32 32 32 33 34 34 35 36 37 38 39 39 39 40 40 40 41 41
20 20 21 22 22 22 22 23 23 24 24 25 25 25 26 26 27 28 28 29 30 31 31 32 33 33 33 34 34 35 36 37 37 38 39 39 39 40 41 41 41 41 42
21 21 22 22 23 24 24 24 24 25 25 25 25 26 26 27 28 28 29 30 31 32 33 34 34 35 35 35 36 37 38 38 39 39 39 40 40 41 42 42 42 42 43
22 23 23 23 24 24 25 25 25 25 25 25 26 27 28 29 29 30 30 31 32 33 34 35 36 36 37 37 37 38 39 39 40 40 41 41 42 42 43 43 43 43 44
22 22 22 23 24 25 25 26 25 25 26 27 27 28 29 30 31 31 32 33 34 35 36 36 37 38 38 38 38 39 39 40 41 42 42 42 43 43 44 44 44 44 44
22 23 23 24 24 25 25 26 26 26 27 27 28 29 30 32 32 33 34 35 35 36 37 38 38 38 38 39 40 40 41 41 42 43 43 43 43 43 44 43 43 43 44
24 24 24 25 26 26 26 26 26 27 28 29 30 31 32 32 33 34 34 35 36 37 38 39 39 39 40 40 40 41 41 42 42 43 43 43 43 43 43 43 43 44 44
24 25 25 26 26 27 27 27 28 29 29 30 31 32 33 34 35 35 36 36 37 38 39 39 39 39 40 41 41 41 41 42 42 43 43 43 43 43 43 43 43 43 44
25 25 26 26 26 27 27 28 28 29 30 32 33 34 35 35 36 36 36 37 38 39 39 39 40 40 41 42 42 42 42 42 43 43 43 42 43 43 43 43 43 43 43
Wind_Direction
224 224 225 227 233 237 240 244 245 248 251 252 255 264 264 271 278 284 288 287 288 290 292 292 293 295 295 294 293 293 292 292 292 292 289 287 287 287 289 290 289 291 289
223 223 226 228 232 235 240 246 250 248 249 252 254 258 266 271 276 284 290 289 289 288 291 291 291 292 292 292 291 289 290 292 292 292 292 290 289 289 290 290 291 292 292
223 224 226 229 230 235 239 244 247 249 251 253 257 258 263 267 274 282 283 282 287 288 290 291 291 291 290 290 289 288 289 292 293 293 293 291 290 291 292 293 292 293 293
227 229 229 231 233 237 240 245 248 251 253 255 258 260 263 266 271 278 278 283 284 285 288 289 290 291 293 291 289 288 288 291 292 292 293 292 291 292 291 291 293 294 293
231 233 232 233 234 238 244 248 250 253 257 257 258 263 266 267 268 272 276 282 284 284 284 286 289 290 291 292 291 290 289 291 292 293 293 292 293 293 292 292 293 293 292
233 234 233 234 235 239 243 249 251 251 256 259 261 266 269 269 270 272 277 279 282 284 284 284 286 289 289 288 288 289 290 291 291 293 294 292 291 290 291 291 292 291 291
233 233 233 234 238 243 247 248 249 251 255 257 261 266 267 267 269 274 276 277 280 283 284 284 284 285 285 285 286 287 290 290 291 293 293 291 290 290 290 290 290 290 291
236 235 235 236 239 244 246 247 249 253 257 263 262 265 267 268 269 271 275 278 280 282 282 283 284 284 285 285 287 288 289 289 289 290 292 292 291 291 291 292 292 292 293
239 236 235 238 241 244 245 247 251 255 259 262 263 265 267 269 270 271 274 277 280 282 282 283 282 283 285 285 286 288 289 288 289 290 291 293 293 293 293 293 293 293 293
241 241 239 241 244 244 246 248 254 258 261 262 264 266 268 272 273 272 275 276 278 282 283 282 282 283 283 284 286 287 288 288 289 290 291 292 293 293 293 294 295 295 295
242 243 243 243 244 246 247 249 255 260 260 263 268 270 273 274 277 277 275 278 280 281 283 284 284 284 284 285 287 288 289 289 290 291 292 292 293 294 295 295 296 296 297
243 243 244 244 245 248 249 251 255 259 262 266 270 272 275 278 279 281 279 280 283 283 284 284 285 285 285 286 288 289 290 290 291 292 292 293 294 295 295 296 297 298 298
244 244 243 244 247 248 250 253 258 261 264 269 272 274 276 279 281 281 283 284 285 286 285 285 285 286 287 288 289 291 292 291 291 291 292 293 294 295 296 297 298 298 298
244 246 246 248 248 249 252 256 258 262 266 270 274 275 277 281 283 282 283 285 285 286 286 286 286 286 287 289 290 291 291 291 291 291 291 292 294 296 297 297 297 297 297
245 245 247 248 249 250 254 256 258 261 265 270 274 276 277 281 283 284 285 287 289 288 287 286 287 288 289 290 290 292 292 292 292 292 292 294 295 296 297 297 297 297 297
248 248 249 250 251 250 253 256 259 260 264 269 274 278 280 281 283 285 287 287 289 290 289 289 290 291 291 292 293 293 293 292 293 293 293 294 295 296 296 296 297 298 297
251 253 254 254 254 255 255 257 259 262 265 271 275 278 281 283 285 286 287 288 289 290 292 292 293 293 293 293 294 294 294 294 294 294 294 295 295 295 296 296 296 297 297
252 254 257 259 259 260 260 260 261 264 269 274 277 279 281 283 286 287 288 289 290 290 292 293 294 294 294 294 294 295 295 295 296 295 296 296 296 295 296 297 296 297 298
253 255 259 261 262 264 264 264 264 266 271 275 278 280 281 284 287 288 289 290 290 291 292 294 295 295 295 295 295 295 295 295 296 296 296 297 296 296 297 297 297 299 299
258 258 260 261 262 263 265 267 268 269 272 275 278 280 283 285 286 289 290 290 291 292 294 294 295 295 295 295 295 295 295 295 296 296 296 297 296 297 297 297 297 299 299
262 261 261 263 264 266 267 268 269 272 274 277 280 282 284 285 287 288 290 292 293 294 295 295 294 294 294 294 295 295 295 295 296 297 297 297 297 297 298 297 297 298 299
265 264 263 263 265 268 269 270 271 274 276 278 281 282 284 286 288 289 290 291 293 294 296 296 295 294 294 294 295 296 296 296 296 296 297 297 297 297 298 298 298 298 299
265 266 265 266 268 270 271 272 273 275 277 279 281 283 284 286 287 289 290 292 293 295 296 296 295 295 295 295 294 295 296 296 297 297 297 297 297 297 298 298 298 298 299
266 267 268 269 271 272 273 274 275 277 279 281 282 284 285 287 288 290 291 293 294 296 297 297 297 296 296 296 295 295 297 298 298 298 298 299 298 297 298 298 298 298 299
267 269 271 272 273 274 275 276 277 278 280 282 284 285 286 287 289 291 293 294 295 297 298 298 298 298 297 297 297 297 297 297 298 299 299 299 298 297 298 298 298 298 299
269 271 273 274 275 276 277 278 279 280 281 283 285 286 287 288 290 291 293 295 296 297 298 298 299 299 298 298 298 299 299 299 299 299 299 299 299 299 300 300 299 298 299
Height
5856 5858 5860 5861 5863 5864 5864 5865 5866 5866 5866 5866 5866 5866 5866 5866 5865 5865 5864 5863 5863 5862 5861 5860 5859 5858 5857 5856 5855 5854 5853 5852 5852 5851 5850 5848 5847 5846 5844 5843 5841 5840 5838
5853 5855 5857 5859 5860 5861 5862 5863 5863 5863 5864 5864 5863 5864 5864 5864 5863 5862 5862 5861 5860 5860 5859 5858 5857 5856 5855 5854 5853 5852 5851 5850 5849 5847 5846 5845 5844 5842 5841 5839 5838 5836 5834
5851 5852 5854 5856 5857 5858 5859 5860 5860 5861 5861 5861 5861 5861 5861 5861 5861 5860 5860 5859 5858 5857 5856 5855 5854 5853 5852 5851 5850 5849 5848 5847 5846 5844 5843 5842 5840 5839 5837 5835 5834 5832 5830
5848 5849 5851 5852 5854 5855 5856 5857 5857 5858 5858 5858 5858 5858 5858 5858 5858 5858 5857 5856 5856 5855 5854 5853 5852 5850 5849 5848 5847 5846 5845 5843 5842 5841 5840 5838 5836 5834 5833 5831 5829 5828 5826
5844 5846 5847 5849 5850 5852 5853 5853 5854 5854 5855 5855 5855 5855 5855 5855 5855 5854 5854 5853 5853 5852 5850 5849 5848 5847 5846 5845 5844 5842 5841 5840 5838 5837 5835 5834 5832 5830 5828 5827 5825 5823 5821
5840 5842 5844 5845 5847 5848 5849 5850 5850 5851 5851 5851 5851 5852 5851 5851 5851 5851 5850 5850 5849 5848 5847 5846 5845 5844 5843 5841 5840 5838 5837 5835 5834 5833 5831 5829 5828 5826 5824 5822 5820 5818 5816
5836 5838 5840 5841 5843 5844 5845 5846 5846 5847 5847 5847 5848 5848 5848 5847 5847 5847 5846 5845 5845 5844 5843 5842 5841 5839 5838 5837 5836 5834 5832 5831 5829 5828 5826 5824 5823 5821 5819 5817 5814 5812 5809
5832 5834 5836 5837 5839 5840 5841 5842 5843 5843 5843 5843 5843 5843 5843 5843 5843 5842 5842 5841 5840 5839 5838 5837 5836 5834 5833 5832 5831 5829 5827 5826 5824 5822 5821 5818 5816 5814 5812 5809 5807 5804 5801
5828 5830 5831 5833 5834 5836 5837 5838 5838 5839 5839 5839 5839 5839 5839 5838 5838 5837 5837 5836 5835 5834 5833 5832 5830 5829 5828 5827 5825 5824 5822 5820 5818 5816 5814 5811 5809 5806 5804 5801 5798 5795 5792
5824 5825 5827 5828 5830 5831 5832 5833 5834 5834 5834 5834 5834 5834 5834 5834 5833 5832 5831 5831 5830 5829 5827 5826 5825 5824 5822 5821 5819 5818 5816 5814 5812 5809 5807 5804 5801 5799 5795 5792 5789 5786 5782
5820 5821 5823 5824 5825 5826 5828 5829 5830 5830 5830 5830 5830 5830 5829 5829 5828 5827 5826 5825 5824 5823 5822 5820 5819 5817 5816 5814 5813 5811 5809 5807 5805 5802 5799 5797 5794 5790 5787 5783 5780 5776 5772
5815 5817 5818 5820 5821 5822 5823 5824 5825 5825 5825 5825 5825 5825 5824 5823 5823 5822 5821 5819 5818 5817 5815 5814 5812 5811 5809 5807 5806 5804 5801 5799 5797 5794 5791 5788 5785 5782 5778 5774 5770 5766 5761
5811 5812 5813 5815 5816 5817 5818 5819 5820 5820 5820 5820 5820 5820 5819 5818 5817 5816 5815 5814 5812 5810 5809 5807 5806 5804 5802 5800 5798 5796 5793 5791 5788 5785 5782 5779 5776 5773 5769 5765 5761 5757 5752
5806 5807 5808 5810 5811 5812 5813 5814 5814 5815 5815 5815 5815 5814 5814 5813 5812 5810 5809 5808 5806 5804 5802 5800 5799 5797 5795 5792 5790 5787 5785 5782 5779 5776 5773 5770 5767 5763 5759 5755 5751 5747 5743
5800 5802 5803 5804 5805 5806 5808 5809 5809 5810 5810 5810 5809 5809 5808 5807 5805 5804 5802 5801 5799 5797 5795 5793 5791 5789 5787 5784 5781 5778 5775 5772 5770 5767 5764 5760 5757 5753 5749 5745 5741 5737 5732
5795 5796 5797 5798 5799 5800 5802 5803 5803 5804 5804 5804 5803 5802 5801 5800 5798 5797 5795 5793 5791 5789 5787 5785 5783 5780 5778 5775 5772 5769 5766 5763 5760 5757 5754 5750 5746 5742 5738 5734 5730 5726 5721
5789 5790 5791 5792 5793 5794 5795 5796 5797 5797 5797 5797 5796 5795 5794 5793 5791 5789 5788 5786 5783 5781 5779 5777 5774 5772 5769 5766 5763 5760 5757 5753 5750 5747 5743 5740 5736 5732 5727 5723 5719 5715 5710
5783 5784 5785 5786 5787 5788 5789 5789 5790 5791 5791 5790 5789 5788 5787 5785 5783 5782 5780 5778 5776 5773 5771 5768 5766 5763 5760 5757 5754 5750 5747 5744 5740 5737 5733 5729 5725 5720 5716 5712 5707 5703 5698
5778 5779 5779 5780 5781 5781 5782 5782 5783 5783 5783 5783 5782 5781 5779 5778 5776 5774 5772 5770 5767 5765 5762 5760 5757 5754 5750 5747 5744 5741 5737 5734 5730 5726 5722 5718 5713 5709 5705 5700 5696 5691 5686
5771 5772 5773 5774 5774 5775 5775 5776 5776 5776 5775 5775 5774 5773 5771 5770 5768 5766 5764 5761 5759 5756 5753 5750 5747 5744 5741 5737 5734 5730 5727 5723 5719 5715 5711 5706 5702 5698 5693 5688 5684 5679 5674
5765 5766 5766 5767 5767 5768 5768 5768 5768 5768 5767 5767 5766 5764 5763 5761 5760 5758 5755 5753 5750 5747 5744 5741 5737 5734 5731 5727 5723 5719 5716 5712 5708 5704 5699 5695 5690 5686 5681 5676 5672 5667 5662
5758 5759 5759 5760 5760 5761 5761 5760 5760 5760 5759 5758 5757 5756 5754 5752 5751 5748 5746 5743 5740 5737 5734 5731 5727 5723 5720 5716 5712 5708 5704 5700 5696 5692 5688 5683 5678 5674 5669 5664 5659 5654 5650
5752 5752 5753 5753 5753 5753 5753 5752 5752 5751 5751 5750 5748 5747 5745 5743 5741 5739 5736 5734 5730 5727 5724 5720 5716 5713 5708 5704 5700 5697 5693 5689 5684 5680 5675 5671 5666 5661 5657 5652 5647 5642 5637
5745 5745 5745 5745 5745 5745 5745 5744 5743 5743 5742 5741 5739 5737 5736 5734 5731 5729 5726 5723 5720 5717 5713 5709 5705 5701 5697 5693 5689 5685 5681 5676 5672 5667 5663 5658 5654 5649 5644 5640 5635 5630 5625
5737 5737 5737 5737 5737 5736 5736 5735 5734 5734 5732 5731 5729 5728 5726 5723 5721 5718 5716 5713 5709 5706 5702 5698 5694 5690 5686 5681 5677 5673 5669 5664 5660 5655 5650 5646 5641 5636 5632 5627 5622 5618 5613
5729 5729 5729 5729 5728 5728 5727 5726 5725 5724 5723 5721 5719 5717 5715 5713 5710 5708 5705 5702 5698 5695 5690 5686 5682 5678 5674 5670 5666 5661 5657 5652 5647 5642 5638 5633 5629 5624 5620 5615 5610 5605 5600